Simultaneous Nadir Overpasses (SNOs) Predictions

Prediction of SNOs between NOAA-21 and NOAA-20 Satellite Orbit:

Table of predicted SNOs for the next 14.0 days since TLE Epoch: 12/14/2022
Index Date (NOAA-21) Time (NOAA-21) Lat,Lon (NOAA-21) SZA (NOAA-21 ) Date (NOAA-20) Time (NOAA-20) Lat,Lon (NOAA-20) SZA (NOAA-20 ) Distance(km) Time Diff (sec)
1 12/28/2022 19:29:27 -76.40, 50.02 79.81 12/28/2022 19:28:13 -76.39, 50.04 79.80 1.28 74
2 12/28/2022 20:19:24 74.23,-136.11 97.69 12/28/2022 20:18:13 74.23,-136.10 97.71 0.23 71
3 12/28/2022 21:09:14 -71.86, 36.36 84.88 12/28/2022 21:08:10 -71.87, 36.36 84.86 0.47 64



Historial Predications of SNOs between NOAA-21 and NOAA-20
